TimeEDT,TemperatureF,Dew PointF,Humidity,Sea Level PressureIn,VisibilityMPH,Wind Direction,Wind SpeedMPH,Gust SpeedMPH,PrecipitationIn,Events,Conditions,WindDirDegrees,DateUTC
12:15 AM,51.8,32.0,47,29.97,10.0,North,6.9,-,N/A,,Clear,360,2013-04-02 04:15:00
12:35 AM,51.8,32.0,47,29.98,10.0,North,9.2,-,N/A,,Scattered Clouds,360,2013-04-02 04:35:00
12:55 AM,51.8,32.0,47,29.99,10.0,North,8.1,-,N/A,,Mostly Cloudy,360,2013-04-02 04:55:00
1:15 AM,50.0,32.0,50,30.01,10.0,North,8.1,-,N/A,,Scattered Clouds,360,2013-04-02 05:15:00
1:35 AM,50.0,32.0,50,30.01,10.0,North,3.5,-,N/A,,Scattered Clouds,360,2013-04-02 05:35:00
1:55 AM,48.2,32.0,54,30.02,10.0,North,3.5,-,N/A,,Scattered Clouds,360,2013-04-02 05:55:00
2:15 AM,48.2,32.0,54,30.02,10.0,NNW,3.5,-,N/A,,Scattered Clouds,340,2013-04-02 06:15:00
2:35 AM,48.2,30.2,50,30.02,10.0,North,3.5,-,N/A,,Scattered Clouds,360,2013-04-02 06:35:00
2:55 AM,46.4,30.2,53,30.02,10.0,North,4.6,-,N/A,,Mostly Cloudy,350,2013-04-02 06:55:00
3:15 AM,46.4,30.2,53,30.02,10.0,Calm,Calm,-,N/A,,Scattered Clouds,0,2013-04-02 07:15:00
3:35 AM,46.4,30.2,53,30.03,10.0,Calm,Calm,-,N/A,,Scattered Clouds,0,2013-04-02 07:35:00
3:55 AM,44.6,32.0,61,30.03,10.0,Calm,Calm,-,N/A,,Mostly Cloudy,0,2013-04-02 07:55:00
4:15 AM,42.8,33.8,70,30.03,10.0,Calm,Calm,-,N/A,,Overcast,0,2013-04-02 08:15:00
4:35 AM,42.8,32.0,66,30.04,10.0,Calm,Calm,-,N/A,,Mostly Cloudy,0,2013-04-02 08:35:00
4:55 AM,41.0,33.8,76,30.04,10.0,Calm,Calm,-,N/A,,Mostly Cloudy,0,2013-04-02 08:55:00
5:15 AM,42.8,35.6,76,30.05,10.0,Calm,Calm,-,N/A,,Overcast,0,2013-04-02 09:15:00
5:35 AM,46.4,24.8,43,30.05,10.0,North,4.6,-,N/A,,Overcast,360,2013-04-02 09:35:00
5:55 AM,46.4,24.8,43,30.06,10.0,North,4.6,-,N/A,,Overcast,10,2013-04-02 09:55:00
6:15 AM,46.4,26.6,46,30.07,10.0,North,3.5,-,N/A,,Mostly Cloudy,10,2013-04-02 10:15:00
6:35 AM,44.6,26.6,49,30.08,10.0,North,5.8,-,N/A,,Scattered Clouds,10,2013-04-02 10:35:00
6:55 AM,44.6,26.6,49,30.10,10.0,North,3.5,-,N/A,,Clear,360,2013-04-02 10:55:00
7:15 AM,44.6,26.6,49,30.11,10.0,North,3.5,-,N/A,,Clear,360,2013-04-02 11:15:00
7:35 AM,44.6,26.6,49,30.12,10.0,Calm,Calm,-,N/A,,Clear,0,2013-04-02 11:35:00
7:55 AM,44.6,26.6,49,30.13,10.0,North,3.5,-,N/A,,Clear,350,2013-04-02 11:55:00
8:15 AM,46.4,26.6,46,30.14,10.0,NNE,4.6,-,N/A,,Clear,20,2013-04-02 12:15:00
8:35 AM,46.4,26.6,46,30.14,10.0,NNE,8.1,-,N/A,,Clear,30,2013-04-02 12:35:00
8:55 AM,48.2,23.0,37,30.15,10.0,North,5.8,-,N/A,,Clear,360,2013-04-02 12:55:00
9:15 AM,48.2,23.0,37,30.15,10.0,Calm,Calm,-,N/A,,Clear,0,2013-04-02 13:15:00
9:35 AM,48.2,21.2,34,30.14,10.0,NE,3.5,-,N/A,,Clear,50,2013-04-02 13:35:00
9:55 AM,48.2,23.0,37,30.14,10.0,Calm,Calm,-,N/A,,Clear,0,2013-04-02 13:55:00
10:35 AM,51.8,21.2,30,30.14,10.0,North,4.6,-,N/A,,Clear,10,2013-04-02 14:35:00
10:55 AM,51.8,21.2,30,30.13,10.0,West,3.5,-,N/A,,Clear,260,2013-04-02 14:55:00
11:15 AM,51.8,21.2,30,30.13,10.0,NW,5.8,-,N/A,,Clear,320,2013-04-02 15:15:00
11:35 AM,53.6,21.2,28,30.13,10.0,West,8.1,-,N/A,,Clear,270,2013-04-02 15:35:00
11:55 AM,53.6,21.2,28,30.13,10.0,West,8.1,16.1,N/A,,Clear,270,2013-04-02 15:55:00
12:15 PM,53.6,21.2,28,30.11,10.0,West,12.7,-,N/A,,Clear,270,2013-04-02 16:15:00
12:35 PM,53.6,21.2,28,30.11,10.0,West,3.5,-,N/A,,Clear,260,2013-04-02 16:35:00
12:55 PM,55.4,24.8,31,30.10,10.0,SW,8.1,-,N/A,,Clear,220,2013-04-02 16:55:00
1:15 PM,55.4,23.0,29,30.10,10.0,West,8.1,18.4,N/A,,Clear,260,2013-04-02 17:15:00
1:35 PM,55.4,21.2,26,30.09,10.0,SW,5.8,-,N/A,,Clear,230,2013-04-02 17:35:00
1:55 PM,55.4,21.2,26,30.09,10.0,West,4.6,-,N/A,,Clear,270,2013-04-02 17:55:00
2:15 PM,55.4,21.2,26,30.08,10.0,West,4.6,-,N/A,,Clear,270,2013-04-02 18:15:00
2:35 PM,55.4,21.2,26,30.07,10.0,WSW,5.8,-,N/A,,Clear,250,2013-04-02 18:35:00
2:55 PM,57.2,21.2,25,30.07,10.0,West,11.5,21.9,N/A,,Clear,280,2013-04-02 18:55:00
3:15 PM,57.2,21.2,25,30.06,10.0,SW,12.7,16.1,N/A,,Clear,230,2013-04-02 19:15:00
3:35 PM,57.2,19.4,23,30.05,10.0,NW,12.7,17.3,N/A,,Clear,310,2013-04-02 19:35:00
3:55 PM,57.2,19.4,23,30.05,10.0,WNW,4.6,-,N/A,,Clear,290,2013-04-02 19:55:00
4:15 PM,59.0,19.4,22,30.04,10.0,NW,9.2,26.5,N/A,,Clear,310,2013-04-02 20:15:00
4:35 PM,59.0,21.2,23,30.04,10.0,West,5.8,17.3,N/A,,Clear,270,2013-04-02 20:35:00
4:55 PM,59.0,19.4,22,30.04,10.0,West,9.2,16.1,N/A,,Clear,260,2013-04-02 20:55:00
5:15 PM,57.2,19.4,23,30.04,10.0,West,5.8,-,N/A,,Clear,270,2013-04-02 21:15:00
5:35 PM,59.0,19.4,22,30.06,10.0,West,13.8,18.4,N/A,,Clear,260,2013-04-02 21:35:00
5:55 PM,57.2,17.6,21,30.06,10.0,NW,13.8,18.4,N/A,,Clear,310,2013-04-02 21:55:00
6:15 PM,57.2,19.4,23,30.08,10.0,West,6.9,11.5,N/A,,Clear,260,2013-04-02 22:15:00
6:35 PM,57.2,19.4,23,30.08,10.0,NW,5.8,-,N/A,,Clear,320,2013-04-02 22:35:00
6:55 PM,51.8,32.0,47,30.09,10.0,East,6.9,-,N/A,,Clear,100,2013-04-02 22:55:00
7:15 PM,48.2,33.8,58,30.10,10.0,East,6.9,-,N/A,,Clear,100,2013-04-02 23:15:00
7:35 PM,46.4,33.8,62,30.10,10.0,ESE,8.1,-,N/A,,Clear,110,2013-04-02 23:35:00
7:55 PM,46.4,33.8,62,30.11,10.0,ESE,5.8,-,N/A,,Clear,110,2013-04-02 23:55:00
8:15 PM,46.4,33.8,62,30.11,10.0,ESE,8.1,-,N/A,,Clear,110,2013-04-03 00:15:00
8:35 PM,44.6,33.8,66,30.12,10.0,ESE,5.8,-,N/A,,Clear,110,2013-04-03 00:35:00
8:55 PM,44.6,33.8,66,30.13,10.0,Calm,Calm,-,N/A,,Clear,0,2013-04-03 00:55:00
9:15 PM,44.6,33.8,66,30.14,10.0,Calm,Calm,-,N/A,,Clear,0,2013-04-03 01:15:00
9:35 PM,42.8,33.8,70,30.15,10.0,Calm,Calm,-,N/A,,Clear,0,2013-04-03 01:35:00
9:55 PM,42.8,33.8,70,30.14,10.0,Calm,Calm,-,N/A,,Clear,0,2013-04-03 01:55:00
10:15 PM,42.8,33.8,70,30.14,10.0,Calm,Calm,-,N/A,,Clear,0,2013-04-03 02:15:00
10:35 PM,39.2,33.8,81,30.15,10.0,Calm,Calm,-,N/A,,Clear,0,2013-04-03 02:35:00
10:55 PM,39.2,33.8,81,30.14,10.0,SSE,3.5,-,N/A,,Clear,160,2013-04-03 02:55:00
11:15 PM,39.2,33.8,81,30.14,10.0,Calm,Calm,-,N/A,,Clear,0,2013-04-03 03:15:00
11:35 PM,39.2,35.6,87,30.14,10.0,Calm,Calm,-,N/A,,Clear,0,2013-04-03 03:35:00
11:55 PM,37.4,33.8,87,30.14,10.0,Calm,Calm,-,N/A,,Clear,0,2013-04-03 03:55:00